星链-3863 (STARLINK-3863 )

导读 | 豆包AI

STARLINK-3863是美国太空探索技术公司星链星座的卫星,由SpaceX于2022年5月6日发射入轨,属于星链互联网卫星组网计划的组成部分。星链项目旨在构建覆盖全球的低轨卫星互联网星座,该卫星承担为全球偏远地区等提供高速互联网接入服务的任务,延续了星链低轨星座批量部署、服务全球联网的发展方向。

基本信息
目录编号:
52465
目录名称:
STARLINK-3863
国际标识:
2022-049Q
轨道中心:
EARTH
卫星名称:
星链-3863
卫星全名:
星链-3863 (STARLINK-3863 )
卫星状态:
在轨 (已飞行1408 天)
发射日期:
2022-05-06 UTC
国别 :
美国 (US)
星等 :
--
轨道信息
数据来源 国际轨道数据
星历时间: 2026-03-14T10:29:47+0800
21小时前
查看轨道信息
半长轴: 6917.889km
偏心率: 0.0001517
轨道倾角: 53.218°
近地点辐角 107.567°
升交点赤经 29.297°
平近点角 252.549°
近地点: 538.702km
远地点: 540.802km
周期: 95.438分钟
每日圈数: 15.088372
详细信息
固有亮度:
5
最大亮度:
2.5
卫星平台:
Starlink v1.5
覆盖范围:
全球
运营商:
太空探索技术公司
运营商所在国:
美国
制造商(研发单位):
太空探索技术公司
制造商所在国:
美国
使用方式:
暂无
卫星简介
星链(Starlink)计划是由太空探索技术公司(SpaceX)提出的一个巨型低轨卫星互联网星座项目,计划在2019年至2024年间在太空搭建由约1.2万颗卫星组成的“星链”网络,其中1584颗将部署在地球上空550千米处的近地轨道,并从2020年开始工作。该卫星仍在工作。
2D轨道图
3D轨道图
轨道高度分析图
轨道倾角分析图
轨道综合分析图
查看轨道综合分析图